Regional Weather Roundup
Issued by NWS Nashville, TN

Home | Current Version | Previous Version | Text Only | Print | Product List | Glossary On
Versions: 1 2 3 4 5 6 7 8 9 10 11 12 13 14 15 16 17 18 19 20 21 22 23 24 25 26 27 28 29 30 31 32 33 34 35 36 37 38 39 40 41 42 43 44 45 46 47 48 49 50
000
ASUS44 KOHX 051900
RWROHX
MIDDLE TENNESSEE HOURLY WEATHER ROUNDUP
NATIONAL WEATHER SERVICE NASHVILLE TN
100 PM CST THU MAR 05 2015

NOTE: "FAIR" INDICATES FEW OR NO CLOUDS BELOW 12,000 FEET WITH
NO SIGNIFICANT WEATHER AND/OR OBSTRUCTIONS TO VISIBILITY.

* THESE REPORTS ARE NOT UNDER NWS QUALITY CONTROL AND MAY NOT
  REPORT WEATHER SUCH AS PRECIPITATION AND FOG.


TNZ005>011-023>034-057-059-062>066-078-080-052000
...NORTHERN MIDDLE TENNESSEE...

CITY           SKY/WX    TMP DP  RH WIND       PRES   REMARKS
CLARKSVILLE    PTSUNNY   25  13  60 N13       30.45S WCI  14
CROSSVILLE     CLOUDY    23  19  85 N8        30.21R WCI  14
NASHVILLE      LGT SNOW  23  18  81 NW13      30.41F FOG     WCI  11
SPARTA         CLOUDY    23  19  86 N8        30.29R WCI  14
$$
TNZ056-058-060-061-075>077-079-093>097-052000
...SOUTHERN MIDDLE TENNESSEE...

CITY           SKY/WX    TMP DP  RH WIND       PRES   REMARKS
COLUMBIA       CLOUDY    23  21  93 N8        30.38R WCI  14
MCMINNVILLE    CLOUDY    23  21  93 N13       30.30S WCI  11
SHELBYVILLE    CLOUDY    25  21  86 N10       30.36R WCI  15
TULLAHOMA      CLOUDY    21  19  93 N12         N/A  WCI   9
WINCHESTER     CLOUDY    25  21  86 N12       30.29R WCI  14
$$


...KEY TO REMARKS...
VSB - VISIBILITY IN MILES
WCI - WIND CHILL INDEX
HX  - HEAT INDEX




USA.gov is the U.S. government's official web portal to all federal, state and local government web resources and services.